Cosmos 1206 Rocket - Orbit

View from above orbital plane
View from above orbital plane
View from above satellite
View from above satellite

Ground track
Ground track

The orbit data is extracted from the following two-line orbital elements,

1 11933U 80069B   13144.18985254  .00028925  00000-0  42804-3 0  9767
2 11933 081.2101 111.0233 0011917 245.0740 114.9272 15.55051325802316
Epoch (UTC): 24 May 2013 04:33:23
Eccentricity: 0.0011917
inclination: 81.2101°
perigee height: 394 km
apogee height: 410 km
right ascension of ascending node: 111.0233°
argument of perigee: 245.0740°
revolutions per day: 15.55051325
mean anomaly at epoch: 114.9272°
orbit number at epoch: 80231

The dashed part of the orbit path shows where the satellite is in the earth's shadow,  

Developed and maintained by Chris Peat, Heavens-Above GmbH. Please read the updated FAQ before sending e-mail. Imprint. DLR